| time (UTC) | temp F | wind direction | speed MPH | gust MPH | rain 1hr in | rain 24hr in | rain mn in | humidity % | barometer mb |
| 20260904175504 | 92 | 30 | 2.0 | 5.0 | 0.00 | 0.00 | 0.00 | 63 | 1016.1 |
| 20260904175004 | 92 | 73 | 2.0 | 5.0 | 0.00 | 0.00 | 0.00 | 64 | 1016.0 |
| 20260904174503 | 92 | 114 | 1.0 | 4.0 | 0.00 | 0.00 | 0.00 | 67 | 1016.1 |
| 20260904174025 | 91 | 95 | 1.0 | 4.0 | 0.00 | 0.00 | 0.00 | 70 | 1016.3 |
| 20260904173504 | 91 | 133 | 2.0 | 5.0 | 0.00 | 0.00 | 0.00 | 69 | 1016.3 |
| 20260904173004 | 90 | 196 | 2.0 | 5.0 | 0.00 | 0.00 | 0.00 | 70 | 1016.3 |
| 20260904172503 | 90 | 160 | 1.0 | 3.0 | 0.00 | 0.00 | 0.00 | 70 | 1016.3 |
| 20260904172004 | 89 | 144 | 0.0 | 3.0 | 0.00 | 0.00 | 0.00 | 71 | 1016.5 |
| 20260904171503 | 89 | 150 | 0.0 | 5.0 | 0.00 | 0.00 | 0.00 | 72 | 1016.5 |
| 20260904171004 | 89 | 173 | 0.0 | 5.0 | 0.00 | 0.00 | 0.00 | 72 | 1016.7 |
| 20260904170503 | 89 | 200 | 0.0 | 4.0 | 0.00 | 0.00 | 0.00 | 72 | 1016.7 |
| 20260904170004 | 88 | 205 | 0.0 | 4.0 | 0.00 | 0.00 | 0.00 | 73 | 1016.9 |
| 20260904165503 | 88 | 223 | 1.0 | 2.0 | 0.00 | 0.00 | 0.00 | 74 | 1016.8 |
| 20260904165003 | 87 | 228 | 1.0 | 3.0 | 0.00 | 0.00 | 0.00 | 73 | 1017.0 |
| 20260904164504 | 88 | 246 | 2.0 | 4.0 | 0.00 | 0.00 | 0.00 | 74 | 1017.1 |
| 20260904164004 | 88 | 244 | 2.0 | 4.0 | 0.00 | 0.00 | 0.00 | 73 | 1017.1 |
| 20260904163504 | 88 | 233 | 2.0 | 4.0 | 0.00 | 0.00 | 0.00 | 74 | 1017.1 |
| 20260904163003 | 88 | 242 | 1.0 | 3.0 | 0.00 | 0.00 | 0.00 | 75 | 1017.2 |
| 20260904162503 | 88 | 250 | 1.0 | 3.0 | 0.00 | 0.00 | 0.00 | 74 | 1017.2 |
| 20260904162003 | 87 | 203 | 2.0 | 6.0 | 0.00 | 0.00 | 0.00 | 75 | 1017.2 |
| 20260904161504 | 88 | 192 | 2.0 | 6.0 | 0.00 | 0.00 | 0.00 | 74 | 1017.2 |
| 20260904161003 | 89 | 203 | 1.0 | 4.0 | 0.00 | 0.00 | 0.00 | 74 | 1017.0 |
| 20260904160503 | 89 | 202 | 1.0 | 2.0 | 0.00 | 0.00 | 0.00 | 74 | 1017.1 |
| 20260904160004 | 88 | 245 | 0.0 | 2.0 | 0.00 | 0.00 | 0.00 | 74 | 1017.1 |
| 20260904155503 | 87 | 0 | 0.0 | 0.0 | 0.00 | 0.00 | 0.00 | 74 | 1017.0 |
| 20260904155003 | 86 | 355 | 0.0 | 2.0 | 0.00 | 0.00 | 0.00 | 74 | 1017.1 |
| 20260904154503 | 86 | 355 | 0.0 | 2.0 | 0.00 | 0.00 | 0.00 | 73 | 1017.0 |
| 20260904154024 | 86 | 0 | 0.0 | 0.0 | 0.00 | 0.00 | 0.00 | 73 | 1016.9 |
| 20260904153504 | 85 | 0 | 0.0 | 0.0 | 0.00 | 0.00 | 0.00 | 72 | 1016.9 |
| 20260904153003 | 84 | 0 | 0.0 | 0.0 | 0.00 | 0.00 | 0.00 | 70 | 1016.9 |
| 20260904152503 | 84 | 257 | 0.0 | 1.0 | 0.00 | 0.00 | 0.00 | 67 | 1016.9 |
| 20260904152003 | 84 | 293 | 1.0 | 4.0 | 0.00 | 0.00 | 0.00 | 67 | 1016.9 |
| 20260904151503 | 84 | 302 | 2.0 | 4.0 | 0.00 | 0.00 | 0.00 | 63 | 1016.9 |
| 20260904151003 | 83 | 312 | 1.0 | 3.0 | 0.00 | 0.00 | 0.00 | 54 | 1016.8 |
| 20260904150503 | 84 | 270 | 0.0 | 2.0 | 0.00 | 0.00 | 0.00 | 47 | 1016.9 |
| 20260904150004 | 83 | 257 | 0.0 | 2.0 | 0.00 | 0.00 | 0.00 | 42 | 1016.9 |
| 20260904145503 | 82 | 325 | 1.0 | 2.0 | 0.00 | 0.00 | 0.00 | 40 | 1016.9 |
| 20260904145003 | 82 | 346 | 1.0 | 2.0 | 0.00 | 0.00 | 0.00 | 39 | 1016.9 |
| 20260904144503 | 81 | 352 | 1.0 | 2.0 | 0.00 | 0.00 | 0.00 | 39 | 1016.9 |
| 20260904144003 | 81 | 343 | 1.0 | 2.0 | 0.00 | 0.00 | 0.00 | 40 | 1017.0 |
| 20260904143503 | 80 | 348 | 0.0 | 2.0 | 0.00 | 0.00 | 0.00 | 40 | 1017.0 |
| 20260904143003 | 80 | 15 | 0.0 | 2.0 | 0.00 | 0.00 | 0.00 | 40 | 1017.0 |
| 20260904142525 | 80 | 14 | 0.0 | 2.0 | 0.00 | 0.00 | 0.00 | 40 | 1016.9 |
| 20260904142004 | 79 | 0 | 0.0 | 0.0 | 0.00 | 0.00 | 0.00 | 40 | 1016.9 |
| 20260904141525 | 79 | 0 | 0.0 | 0.0 | 0.00 | 0.00 | 0.00 | 40 | 1016.9 |
| 20260904141024 | 79 | 0 | 0.0 | 0.0 | 0.00 | 0.00 | 0.00 | 40 | 1016.9 |
| 20260904140504 | 79 | 0 | 0.0 | 0.0 | 0.00 | 0.00 | 0.00 | 40 | 1016.9 |
| 20260904140004 | 78 | 0 | 0.0 | 0.0 | 0.00 | 0.00 | 0.00 | 41 | 1017.0 |
| 20260904135503 | 78 | 0 | 0.0 | 0.0 | 0.00 | 0.02 | 0.00 | 41 | 1016.8 |
| 20260904135004 | 78 | 0 | 0.0 | 0.0 | 0.00 | 0.12 | 0.00 | 41 | 1016.9 |
| 20260904134503 | 77 | 0 | 0.0 | 0.0 | 0.00 | 0.27 | 0.00 | 41 | 1016.8 |
| 20260904134003 | 77 | 0 | 0.0 | 0.0 | 0.00 | 0.27 | 0.00 | 41 | 1016.6 |
| 20260904133503 | 76 | 0 | 0.0 | 0.0 | 0.00 | 0.27 | 0.00 | 41 | 1016.6 |
| 20260904133003 | 76 | 0 | 0.0 | 0.0 | 0.00 | 0.27 | 0.00 | 41 | 1016.5 |
| 20260904132503 | 75 | 0 | 0.0 | 0.0 | 0.00 | 0.27 | 0.00 | 41 | 1016.4 |
| 20260904132003 | 75 | 0 | 0.0 | 0.0 | 0.00 | 0.27 | 0.00 | 41 | 1016.5 |
| 20260904131503 | 75 | 0 | 0.0 | 0.0 | 0.00 | 0.27 | 0.00 | 41 | 1016.4 |
| 20260904131024 | 75 | 0 | 0.0 | 0.0 | 0.00 | 0.27 | 0.00 | 41 | 1016.4 |
| 20260904130524 | 75 | 0 | 0.0 | 0.0 | 0.00 | 0.27 | 0.00 | 41 | 1016.3 |
| 20260904130003 | 74 | 0 | 0.0 | 0.0 | 0.00 | 0.27 | 0.00 | 41 | 1016.2 |
| 20260904125524 | 74 | 0 | 0.0 | 0.0 | 0.00 | 0.27 | 0.00 | 41 | 1016.1 |
| 20260904125003 | 74 | 0 | 0.0 | 0.0 | 0.00 | 0.27 | 0.00 | 41 | 1016.1 |
| 20260904124503 | 74 | 0 | 0.0 | 0.0 | 0.00 | 0.27 | 0.00 | 41 | 1016.1 |
| 20260904124024 | 74 | 0 | 0.0 | 0.0 | 0.00 | 0.27 | 0.00 | 42 | 1016.0 |
| 20260904123503 | 74 | 0 | 0.0 | 0.0 | 0.00 | 0.27 | 0.00 | 42 | 1015.8 |
| 20260904123024 | 74 | 0 | 0.0 | 0.0 | 0.00 | 0.27 | 0.00 | 41 | 1015.8 |
| 20260904122503 | 74 | 0 | 0.0 | 0.0 | 0.00 | 0.27 | 0.00 | 41 | 1015.8 |
| 20260904122003 | 74 | 0 | 0.0 | 0.0 | 0.00 | 0.27 | 0.00 | 41 | 1015.8 |
| 20260904121503 | 73 | 0 | 0.0 | 0.0 | 0.00 | 0.27 | 0.00 | 41 | 1015.8 |
| 20260904121003 | 73 | 0 | 0.0 | 0.0 | 0.00 | 0.27 | 0.00 | 41 | 1015.7 |
| 20260904120503 | 73 | 0 | 0.0 | 0.0 | 0.00 | 0.27 | 0.00 | 41 | 1015.6 |
| 20260904120003 | 73 | 0 | 0.0 | 0.0 | 0.00 | 0.27 | 0.00 | 41 | 1015.5 |
| 20260904115503 | 73 | 0 | 0.0 | 0.0 | 0.00 | 0.27 | 0.00 | 41 | 1015.5 |
| 20260904115003 | 74 | 0 | 0.0 | 0.0 | 0.00 | 0.27 | 0.00 | 41 | 1015.5 |
| 20260904114503 | 74 | 0 | 0.0 | 0.0 | 0.00 | 0.27 | 0.00 | 41 | 1015.5 |
| 20260904114003 | 74 | 0 | 0.0 | 0.0 | 0.00 | 0.27 | 0.00 | 41 | 1015.5 |
| 20260904113503 | 74 | 0 | 0.0 | 0.0 | 0.00 | 0.27 | 0.00 | 41 | 1015.5 |
| 20260904113003 | 74 | 0 | 0.0 | 0.0 | 0.00 | 0.27 | 0.00 | 41 | 1015.4 |
| 20260904112503 | 74 | 0 | 0.0 | 0.0 | 0.00 | 0.27 | 0.00 | 42 | 1015.4 |
| 20260904112025 | 74 | 0 | 0.0 | 0.0 | 0.00 | 0.27 | 0.00 | 42 | 1015.3 |
| 20260904111503 | 74 | 0 | 0.0 | 0.0 | 0.00 | 0.27 | 0.00 | 41 | 1015.3 |
| 20260904111003 | 74 | 0 | 0.0 | 0.0 | 0.00 | 0.27 | 0.00 | 41 | 1015.3 |
| 20260904110503 | 74 | 0 | 0.0 | 0.0 | 0.00 | 0.27 | 0.00 | 41 | 1015.3 |
| 20260904110003 | 74 | 0 | 0.0 | 0.0 | 0.00 | 0.27 | 0.00 | 41 | 1015.4 |
| 20260904105503 | 74 | 0 | 0.0 | 0.0 | 0.00 | 0.27 | 0.00 | 41 | 1015.3 |
| 20260904105003 | 74 | 0 | 0.0 | 0.0 | 0.00 | 0.27 | 0.00 | 41 | 1015.3 |
| 20260904104503 | 74 | 0 | 0.0 | 0.0 | 0.00 | 0.27 | 0.00 | 41 | 1015.3 |
| 20260904104003 | 74 | 0 | 0.0 | 0.0 | 0.00 | 0.27 | 0.00 | 41 | 1015.3 |
| 20260904103503 | 74 | 0 | 0.0 | 0.0 | 0.00 | 0.27 | 0.00 | 41 | 1015.4 |
| 20260904103003 | 74 | 0 | 0.0 | 0.0 | 0.00 | 0.27 | 0.00 | 41 | 1015.3 |
| 20260904102503 | 74 | 0 | 0.0 | 0.0 | 0.00 | 0.27 | 0.00 | 41 | 1015.4 |
| 20260904102003 | 74 | 0 | 0.0 | 0.0 | 0.00 | 0.27 | 0.00 | 41 | 1015.4 |
| 20260904101524 | 74 | 0 | 0.0 | 0.0 | 0.00 | 0.27 | 0.00 | 41 | 1015.3 |
| 20260904101024 | 74 | 0 | 0.0 | 0.0 | 0.00 | 0.27 | 0.00 | 41 | 1015.3 |
| 20260904100503 | 74 | 0 | 0.0 | 0.0 | 0.00 | 0.27 | 0.00 | 41 | 1015.2 |
| 20260904100003 | 74 | 0 | 0.0 | 0.0 | 0.00 | 0.27 | 0.00 | 41 | 1015.3 |
| 20260904095503 | 74 | 0 | 0.0 | 0.0 | 0.00 | 0.27 | 0.00 | 41 | 1015.4 |
| 20260904095003 | 74 | 0 | 0.0 | 0.0 | 0.00 | 0.27 | 0.00 | 41 | 1015.4 |
| 20260904094504 | 74 | 0 | 0.0 | 0.0 | 0.00 | 0.27 | 0.00 | 41 | 1015.4 |
| 20260904094003 | 74 | 0 | 0.0 | 0.0 | 0.00 | 0.27 | 0.00 | 41 | 1015.3 |
| 20260904093503 | 75 | 0 | 0.0 | 0.0 | 0.00 | 0.27 | 0.00 | 41 | 1015.3 |
| 20260904093003 | 75 | 0 | 0.0 | 0.0 | 0.00 | 0.27 | 0.00 | 41 | 1015.2 |
| 20260904092503 | 75 | 0 | 0.0 | 0.0 | 0.00 | 0.27 | 0.00 | 41 | 1015.2 |
| 20260904092024 | 74 | 0 | 0.0 | 0.0 | 0.00 | 0.27 | 0.00 | 41 | 1015.2 |
| 20260904091503 | 74 | 0 | 0.0 | 0.0 | 0.00 | 0.27 | 0.00 | 41 | 1015.2 |
| 20260904091003 | 74 | 0 | 0.0 | 0.0 | 0.00 | 0.27 | 0.00 | 41 | 1015.2 |
| 20260904090503 | 74 | 0 | 0.0 | 0.0 | 0.00 | 0.27 | 0.00 | 41 | 1015.2 |
| 20260904090004 | 74 | 0 | 0.0 | 0.0 | 0.00 | 0.27 | 0.00 | 41 | 1015.2 |
| 20260904085503 | 74 | 0 | 0.0 | 0.0 | 0.00 | 0.27 | 0.00 | 41 | 1015.2 |
| 20260904085003 | 75 | 0 | 0.0 | 0.0 | 0.00 | 0.27 | 0.00 | 41 | 1015.1 |
| 20260904084503 | 75 | 0 | 0.0 | 0.0 | 0.00 | 0.27 | 0.00 | 41 | 1015.0 |
| 20260904084003 | 75 | 0 | 0.0 | 0.0 | 0.00 | 0.27 | 0.00 | 41 | 1015.2 |
| 20260904083503 | 75 | 0 | 0.0 | 0.0 | 0.00 | 0.27 | 0.00 | 41 | 1015.2 |
| 20260904083024 | 75 | 0 | 0.0 | 0.0 | 0.00 | 0.27 | 0.00 | 41 | 1015.2 |
| 20260904082524 | 75 | 0 | 0.0 | 0.0 | 0.00 | 0.27 | 0.00 | 41 | 1015.2 |
| 20260904082003 | 75 | 0 | 0.0 | 0.0 | 0.00 | 0.27 | 0.00 | 41 | 1015.1 |
| 20260904081503 | 75 | 0 | 0.0 | 0.0 | 0.00 | 0.27 | 0.00 | 41 | 1015.2 |
| 20260904081024 | 75 | 0 | 0.0 | 0.0 | 0.00 | 0.27 | 0.00 | 41 | 1015.1 |
| 20260904080503 | 75 | 0 | 0.0 | 0.0 | 0.00 | 0.27 | 0.00 | 41 | 1015.1 |
| 20260904080003 | 75 | 0 | 0.0 | 0.0 | 0.00 | 0.27 | 0.00 | 41 | 1015.1 |
| 20260904075503 | 75 | 0 | 0.0 | 0.0 | 0.00 | 0.27 | 0.00 | 41 | 1015.1 |
| 20260904075003 | 75 | 0 | 0.0 | 0.0 | 0.00 | 0.27 | 0.00 | 41 | 1015.2 |
| 20260904074503 | 75 | 0 | 0.0 | 0.0 | 0.00 | 0.27 | 0.00 | 41 | 1015.2 |
| 20260904074003 | 75 | 0 | 0.0 | 0.0 | 0.00 | 0.27 | 0.00 | 41 | 1015.2 |
| 20260904073503 | 75 | 0 | 0.0 | 0.0 | 0.00 | 0.27 | 0.00 | 41 | 1015.0 |
| 20260904073003 | 75 | 0 | 0.0 | 0.0 | 0.00 | 0.27 | 0.00 | 41 | 1015.0 |
| 20260904072506 | 75 | 0 | 0.0 | 0.0 | 0.00 | 0.27 | 0.00 | 41 | 1014.9 |
| 20260904072024 | 75 | 0 | 0.0 | 0.0 | 0.00 | 0.27 | 0.00 | 41 | 1014.9 |
| 20260904071503 | 75 | 0 | 0.0 | 0.0 | 0.00 | 0.27 | 0.00 | 41 | 1014.9 |
| 20260904071003 | 75 | 0 | 0.0 | 0.0 | 0.00 | 0.27 | 0.00 | 41 | 1014.9 |
| 20260904070524 | 76 | 0 | 0.0 | 0.0 | 0.00 | 0.27 | 0.00 | 41 | 1015.0 |
| 20260904070003 | 76 | 0 | 0.0 | 0.0 | 0.00 | 0.27 | 0.00 | 41 | 1014.9 |
| 20260904065503 | 76 | 0 | 0.0 | 0.0 | 0.00 | 0.27 | 0.00 | 41 | 1015.0 |
| 20260904065003 | 76 | 0 | 0.0 | 0.0 | 0.00 | 0.27 | 0.00 | 41 | 1015.0 |
| 20260904064524 | 75 | 0 | 0.0 | 0.0 | 0.00 | 0.27 | 0.00 | 41 | 1015.1 |
| 20260904064024 | 76 | 0 | 0.0 | 0.0 | 0.00 | 0.27 | 0.00 | 41 | 1015.0 |
| 20260904063503 | 76 | 0 | 0.0 | 0.0 | 0.00 | 0.27 | 0.00 | 41 | 1014.9 |
| 20260904063003 | 76 | 0 | 0.0 | 0.0 | 0.00 | 0.27 | 0.00 | 41 | 1014.8 |
| 20260904062503 | 76 | 0 | 0.0 | 0.0 | 0.00 | 0.27 | 0.00 | 41 | 1014.7 |
| 20260904062003 | 76 | 0 | 0.0 | 0.0 | 0.00 | 0.27 | 0.00 | 41 | 1014.8 |
| 20260904061503 | 76 | 0 | 0.0 | 0.0 | 0.00 | 0.27 | 0.00 | 41 | 1014.7 |
| 20260904061003 | 76 | 0 | 0.0 | 0.0 | 0.00 | 0.27 | 0.00 | 41 | 1014.7 |
| 20260904060503 | 76 | 0 | 0.0 | 0.0 | 0.00 | 0.27 | 0.00 | 41 | 1014.8 |
| 20260904060024 | 76 | 0 | 0.0 | 0.0 | 0.00 | 0.27 | 0.00 | 41 | 1014.7 |
| 20260904055524 | 76 | 0 | 0.0 | 0.0 | 0.00 | 0.27 | 0.00 | 41 | 1014.6 |
| 20260904055003 | 76 | 0 | 0.0 | 0.0 | 0.00 | 0.27 | 0.00 | 41 | 1014.7 |
| 20260904054524 | 76 | 0 | 0.0 | 0.0 | 0.00 | 0.27 | 0.00 | 41 | 1014.6 |
| 20260904054003 | 76 | 0 | 0.0 | 0.0 | 0.00 | 0.27 | 0.00 | 41 | 1014.6 |
| 20260904053503 | 76 | 0 | 0.0 | 0.0 | 0.00 | 0.27 | 0.00 | 41 | 1014.6 |
| 20260904053003 | 76 | 0 | 0.0 | 0.0 | 0.00 | 0.27 | 0.00 | 41 | 1014.5 |
| 20260904052503 | 76 | 0 | 0.0 | 0.0 | 0.00 | 0.27 | 0.00 | 41 | 1014.4 |
| 20260904052024 | 76 | 0 | 0.0 | 0.0 | 0.00 | 0.27 | 0.00 | 41 | 1014.5 |
| 20260904051503 | 76 | 0 | 0.0 | 0.0 | 0.00 | 0.27 | 0.00 | 41 | 1014.5 |
| 20260904051003 | 76 | 0 | 0.0 | 0.0 | 0.00 | 0.27 | 0.00 | 41 | 1014.5 |
| 20260904050504 | 76 | 0 | 0.0 | 0.0 | 0.00 | 0.27 | 0.00 | 41 | 1014.5 |
| 20260904050003 | 76 | 0 | 0.0 | 0.0 | 0.00 | 0.27 | 0.00 | 41 | 1014.4 |
| 20260904045503 | 76 | 0 | 0.0 | 0.0 | 0.00 | 0.27 | 0.27 | 41 | 1014.3 |
| 20260904045003 | 76 | 0 | 0.0 | 0.0 | 0.00 | 0.27 | 0.27 | 41 | 1014.5 |
| 20260904044524 | 76 | 0 | 0.0 | 0.0 | 0.00 | 0.27 | 0.27 | 41 | 1014.5 |
| 20260904044003 | 76 | 0 | 0.0 | 0.0 | 0.00 | 0.27 | 0.27 | 41 | 1014.5 |
| 20260904043503 | 76 | 0 | 0.0 | 0.0 | 0.00 | 0.27 | 0.27 | 41 | 1014.5 |
| 20260904043004 | 77 | 0 | 0.0 | 0.0 | 0.00 | 0.27 | 0.27 | 41 | 1014.5 |
| 20260904042526 | 76 | 0 | 0.0 | 0.0 | 0.00 | 0.27 | 0.27 | 41 | 1014.6 |
| 20260904042005 | 76 | 0 | 0.0 | 0.0 | 0.00 | 0.27 | 0.27 | 41 | 1014.7 |
| 20260904041505 | 76 | 0 | 0.0 | 0.0 | 0.00 | 0.27 | 0.27 | 41 | 1014.7 |
| 20260904041004 | 77 | 0 | 0.0 | 0.0 | 0.00 | 0.27 | 0.27 | 41 | 1014.7 |
| 20260904040504 | 77 | 0 | 0.0 | 0.0 | 0.00 | 0.27 | 0.27 | 41 | 1014.7 |
| 20260904040004 | 77 | 0 | 0.0 | 0.0 | 0.00 | 0.27 | 0.27 | 41 | 1014.7 |
| 20260904035504 | 77 | 0 | 0.0 | 0.0 | 0.00 | 0.27 | 0.27 | 41 | 1014.8 |
| 20260904035005 | 77 | 0 | 0.0 | 0.0 | 0.00 | 0.27 | 0.27 | 41 | 1014.8 |
| 20260904034504 | 77 | 0 | 0.0 | 0.0 | 0.00 | 0.28 | 0.27 | 41 | 1014.8 |
| 20260904034004 | 77 | 0 | 0.0 | 0.0 | 0.00 | 0.28 | 0.27 | 41 | 1014.8 |
| 20260904033504 | 77 | 0 | 0.0 | 0.0 | 0.00 | 0.28 | 0.27 | 41 | 1014.8 |
| 20260904033025 | 77 | 0 | 0.0 | 0.0 | 0.00 | 0.28 | 0.27 | 42 | 1014.8 |
| 20260904032505 | 77 | 0 | 0.0 | 0.0 | 0.00 | 0.28 | 0.27 | 42 | 1014.8 |
| 20260904032007 | 77 | 0 | 0.0 | 0.0 | 0.00 | 0.29 | 0.27 | 42 | 1014.8 |
| 20260904031504 | 77 | 0 | 0.0 | 0.0 | 0.00 | 0.29 | 0.27 | 42 | 1014.7 |
| 20260904031004 | 77 | 0 | 0.0 | 0.0 | 0.00 | 0.30 | 0.27 | 42 | 1014.7 |
| 20260904030504 | 77 | 0 | 0.0 | 0.0 | 0.00 | 0.32 | 0.27 | 43 | 1014.7 |
| 20260904030004 | 77 | 0 | 0.0 | 0.0 | 0.00 | 0.32 | 0.27 | 43 | 1014.7 |
| 20260904025505 | 77 | 0 | 0.0 | 0.0 | 0.00 | 0.33 | 0.27 | 43 | 1014.7 |
| 20260904025005 | 78 | 0 | 0.0 | 0.0 | 0.00 | 0.34 | 0.27 | 43 | 1014.7 |
| 20260904024504 | 78 | 0 | 0.0 | 0.0 | 0.00 | 0.35 | 0.27 | 43 | 1014.7 |
| 20260904024008 | 78 | 0 | 0.0 | 0.0 | 0.00 | 0.35 | 0.27 | 43 | 1014.8 |
| 20260904023504 | 78 | 0 | 0.0 | 0.0 | 0.00 | 0.36 | 0.27 | 44 | 1014.8 |
| 20260904023005 | 78 | 0 | 0.0 | 0.0 | 0.00 | 0.37 | 0.27 | 44 | 1014.8 |
| 20260904022505 | 78 | 0 | 0.0 | 0.0 | 0.00 | 0.38 | 0.27 | 44 | 1014.8 |
| 20260904022007 | 78 | 0 | 0.0 | 0.0 | 0.00 | 0.39 | 0.27 | 45 | 1014.8 |
| 20260904021505 | 78 | 0 | 0.0 | 0.0 | 0.00 | 0.40 | 0.27 | 46 | 1014.7 |
| 20260904021009 | 78 | 0 | 0.0 | 0.0 | 0.00 | 0.40 | 0.27 | 47 | 1014.7 |
| 20260904020505 | 78 | 0 | 0.0 | 0.0 | 0.00 | 0.40 | 0.27 | 48 | 1014.6 |
| 20260904020005 | 78 | 0 | 0.0 | 0.0 | 0.00 | 0.41 | 0.27 | 49 | 1014.5 |
| 20260904015505 | 78 | 0 | 0.0 | 0.0 | 0.00 | 0.41 | 0.27 | 51 | 1014.4 |
| 20260904015006 | 79 | 0 | 0.0 | 0.0 | 0.00 | 0.41 | 0.27 | 52 | 1014.4 |
| 20260904014506 | 79 | 0 | 0.0 | 0.0 | 0.00 | 0.42 | 0.27 | 56 | 1014.3 |
| 20260904014004 | 79 | 0 | 0.0 | 0.0 | 0.00 | 0.43 | 0.27 | 56 | 1014.2 |
| 20260904013504 | 79 | 0 | 0.0 | 0.0 | 0.00 | 0.43 | 0.27 | 55 | 1014.0 |
| 20260904013004 | 80 | 0 | 0.0 | 0.0 | 0.00 | 0.44 | 0.27 | 57 | 1014.0 |
| 20260904012526 | 80 | 0 | 0.0 | 0.0 | 0.00 | 0.45 | 0.27 | 60 | 1014.1 |
| 20260904012004 | 80 | 0 | 0.0 | 0.0 | 0.00 | 0.46 | 0.27 | 64 | 1013.9 |
| 20260904011525 | 81 | 0 | 0.0 | 0.0 | 0.00 | 0.47 | 0.27 | 62 | 1013.7 |
| 20260904011025 | 81 | 0 | 0.0 | 0.0 | 0.00 | 0.48 | 0.27 | 65 | 1013.7 |
| 20260904010504 | 81 | 0 | 0.0 | 0.0 | 0.00 | 0.49 | 0.27 | 67 | 1013.6 |
| 20260904010004 | 82 | 0 | 0.0 | 0.0 | 0.00 | 0.50 | 0.27 | 68 | 1013.6 |
| 20260904005504 | 82 | 0 | 0.0 | 0.0 | 0.00 | 0.51 | 0.27 | 70 | 1013.5 |
| 20260904005004 | 82 | 0 | 0.0 | 0.0 | 0.00 | 0.51 | 0.27 | 71 | 1013.5 |
| 20260904004504 | 83 | 0 | 0.0 | 0.0 | 0.00 | 0.52 | 0.27 | 70 | 1013.5 |
| 20260904004004 | 83 | 0 | 0.0 | 0.0 | 0.00 | 0.52 | 0.27 | 72 | 1013.5 |
| 20260904003504 | 84 | 0 | 0.0 | 0.0 | 0.00 | 0.53 | 0.27 | 75 | 1013.6 |
| 20260904003004 | 84 | 0 | 0.0 | 0.0 | 0.00 | 0.53 | 0.27 | 76 | 1013.4 |
| 20260904002504 | 84 | 360 | 0.0 | 1.0 | 0.00 | 0.54 | 0.27 | 77 | 1013.4 |
| 20260904002004 | 85 | 8 | 0.0 | 1.0 | 0.00 | 0.55 | 0.27 | 78 | 1013.4 |
| 20260904001525 | 85 | 15 | 0.0 | 1.0 | 0.00 | 0.56 | 0.27 | 77 | 1013.4 |
| 20260904001004 | 86 | 0 | 0.0 | 0.0 | 0.00 | 0.56 | 0.27 | 77 | 1013.5 |
| 20260904000525 | 86 | 0 | 0.0 | 0.0 | 0.00 | 0.57 | 0.27 | 76 | 1013.4 |
| 20260904000004 | 86 | 0 | 0.0 | 0.0 | 0.00 | 0.57 | 0.27 | 76 | 1013.6 |
| 20260903235504 | 86 | 0 | 0.0 | 0.0 | 0.00 | 0.58 | 0.27 | 76 | 1013.5 |
| 20260903235004 | 87 | 191 | 0.0 | 3.0 | 0.00 | 0.59 | 0.27 | 74 | 1013.5 |
| 20260903234504 | 87 | 190 | 0.0 | 3.0 | 0.00 | 0.59 | 0.27 | 74 | 1013.6 |
| 20260903234004 | 87 | 199 | 0.0 | 3.0 | 0.00 | 0.60 | 0.27 | 75 | 1013.5 |
| 20260903233504 | 87 | 228 | 0.0 | 2.0 | 0.00 | 0.61 | 0.27 | 73 | 1013.4 |
| 20260903233004 | 88 | 185 | 1.0 | 3.0 | 0.00 | 0.62 | 0.27 | 72 | 1013.5 |
| 20260903232504 | 88 | 171 | 1.0 | 4.0 | 0.00 | 0.62 | 0.27 | 70 | 1013.5 |
| 20260903232004 | 89 | 202 | 1.0 | 4.0 | 0.00 | 0.62 | 0.27 | 70 | 1013.4 |
| 20260903231525 | 90 | 219 | 1.0 | 4.0 | 0.00 | 0.63 | 0.27 | 69 | 1013.5 |
| 20260903231004 | 90 | 202 | 1.0 | 4.0 | 0.00 | 0.64 | 0.27 | 68 | 1013.5 |
| 20260903230525 | 90 | 190 | 2.0 | 6.0 | 0.00 | 0.64 | 0.27 | 66 | 1013.5 |
| 20260903230004 | 90 | 185 | 2.0 | 6.0 | 0.00 | 0.65 | 0.27 | 67 | 1013.5 |
| 20260903225504 | 90 | 182 | 1.0 | 5.0 | 0.00 | 0.66 | 0.27 | 68 | 1013.5 |
| 20260903225004 | 90 | 188 | 1.0 | 4.0 | 0.00 | 0.67 | 0.27 | 70 | 1013.6 |
| 20260903224504 | 90 | 186 | 2.0 | 7.0 | 0.00 | 0.68 | 0.27 | 68 | 1013.8 |
| 20260903224004 | 90 | 198 | 2.0 | 7.0 | 0.00 | 0.70 | 0.27 | 70 | 1013.7 |
| 20260903223504 | 90 | 211 | 2.0 | 5.0 | 0.00 | 0.72 | 0.27 | 69 | 1013.8 |
| 20260903223004 | 90 | 219 | 2.0 | 5.0 | 0.00 | 0.74 | 0.27 | 71 | 1013.8 |
| 20260903222504 | 90 | 232 | 2.0 | 5.0 | 0.00 | 0.95 | 0.27 | 70 | 1013.9 |
| 20260903222004 | 90 | 198 | 2.0 | 7.0 | 0.00 | 1.34 | 0.27 | 71 | 1013.9 |
| 20260903221525 | 90 | 179 | 3.0 | 7.0 | 0.00 | 1.42 | 0.27 | 71 | 1014.0 |
| 20260903221004 | 89 | 183 | 2.0 | 6.0 | 0.00 | 1.44 | 0.27 | 73 | 1014.0 |
| 20260903220504 | 88 | 220 | 1.0 | 3.0 | 0.00 | 1.44 | 0.27 | 75 | 1014.0 |
| 20260903220004 | 88 | 235 | 1.0 | 3.0 | 0.00 | 1.45 | 0.27 | 74 | 1014.2 |
| 20260903215504 | 88 | 230 | 1.0 | 2.0 | 0.00 | 1.46 | 0.27 | 74 | 1014.2 |
| 20260903215004 | 89 | 218 | 1.0 | 3.0 | 0.00 | 1.49 | 0.27 | 73 | 1014.2 |
| 20260903214504 | 90 | 214 | 2.0 | 4.0 | 0.00 | 1.49 | 0.27 | 71 | 1014.4 |
| 20260903214025 | 90 | 198 | 2.0 | 8.0 | 0.00 | 1.50 | 0.27 | 69 | 1014.4 |
| 20260903213504 | 91 | 188 | 2.0 | 8.0 | 0.00 | 1.50 | 0.27 | 68 | 1014.3 |
| 20260903213004 | 92 | 184 | 2.0 | 6.0 | 0.00 | 1.50 | 0.27 | 68 | 1014.3 |
| 20260903212504 | 92 | 176 | 2.0 | 6.0 | 0.00 | 1.50 | 0.27 | 68 | 1014.4 |
| 20260903212004 | 91 | 189 | 2.0 | 7.0 | 0.00 | 1.50 | 0.27 | 68 | 1014.5 |
| 20260903211504 | 91 | 178 | 2.0 | 7.0 | 0.00 | 1.51 | 0.27 | 65 | 1014.6 |
| 20260903211025 | 91 | 164 | 3.0 | 6.0 | 0.00 | 1.51 | 0.27 | 65 | 1014.6 |
| 20260903210504 | 91 | 185 | 3.0 | 6.0 | 0.00 | 1.52 | 0.27 | 66 | 1014.8 |
| 20260903210004 | 91 | 206 | 2.0 | 6.0 | 0.00 | 1.54 | 0.27 | 69 | 1014.7 |
| 20260903205504 | 90 | 186 | 1.0 | 5.0 | 0.00 | 1.56 | 0.27 | 68 | 1014.8 |
| 20260903205004 | 90 | 174 | 1.0 | 5.0 | 0.00 | 1.60 | 0.27 | 70 | 1014.6 |
| 20260903204504 | 90 | 176 | 2.0 | 5.0 | 0.00 | 1.78 | 0.27 | 70 | 1014.6 |
| 20260903204004 | 90 | 176 | 2.0 | 6.0 | 0.00 | 1.89 | 0.27 | 69 | 1014.7 |
| 20260903203504 | 91 | 171 | 3.0 | 6.0 | 0.00 | 1.94 | 0.27 | 70 | 1014.7 |
| 20260903203004 | 92 | 165 | 2.0 | 6.0 | 0.00 | 2.04 | 0.27 | 69 | 1014.7 |
| 20260903202525 | 92 | 162 | 1.0 | 5.0 | 0.00 | 2.13 | 0.27 | 67 | 1014.7 |
| 20260903202025 | 92 | 194 | 1.0 | 5.0 | 0.00 | 2.13 | 0.27 | 68 | 1014.7 |
| 20260903201525 | 91 | 208 | 2.0 | 5.0 | 0.00 | 2.13 | 0.27 | 67 | 1014.7 |
| 20260903201025 | 91 | 225 | 2.0 | 5.0 | 0.00 | 2.13 | 0.27 | 69 | 1014.9 |
| 20260903200525 | 90 | 192 | 2.0 | 5.0 | 0.00 | 2.13 | 0.27 | 68 | 1014.9 |
| 20260903200004 | 89 | 162 | 3.0 | 6.0 | 0.00 | 2.14 | 0.27 | 72 | 1015.1 |
| 20260903195504 | 89 | 164 | 3.0 | 7.0 | 0.00 | 2.14 | 0.27 | 72 | 1015.2 |
| 20260903195004 | 90 | 189 | 3.0 | 7.0 | 0.00 | 2.14 | 0.27 | 72 | 1015.4 |
| 20260903194504 | 90 | 254 | 1.0 | 4.0 | 0.00 | 2.14 | 0.27 | 70 | 1015.4 |
| 20260903194003 | 90 | 280 | 1.0 | 4.0 | 0.00 | 2.14 | 0.27 | 69 | 1015.4 |
| 20260903193504 | 90 | 230 | 3.0 | 7.0 | 0.00 | 2.14 | 0.27 | 68 | 1015.6 |
| 20260903193004 | 90 | 219 | 3.0 | 7.0 | 0.00 | 2.14 | 0.27 | 68 | 1015.7 |
| 20260903192504 | 90 | 273 | 2.0 | 5.0 | 0.00 | 2.14 | 0.27 | 68 | 1015.8 |
| 20260903192004 | 90 | 176 | 2.0 | 6.0 | 0.00 | 2.14 | 0.27 | 70 | 1015.8 |
| 20260903191504 | 90 | 170 | 3.0 | 7.0 | 0.00 | 2.15 | 0.27 | 72 | 1015.8 |
| 20260903191004 | 90 | 171 | 2.0 | 7.0 | 0.00 | 2.15 | 0.27 | 72 | 1015.9 |
| 20260903190504 | 90 | 186 | 2.0 | 5.0 | 0.00 | 2.15 | 0.27 | 75 | 1015.9 |
| 20260903190004 | 89 | 227 | 2.0 | 6.0 | 0.00 | 2.15 | 0.27 | 74 | 1016.0 |
| 20260903185504 | 89 | 241 | 2.0 | 6.0 | 0.00 | 2.15 | 0.27 | 72 | 1015.9 |
| 20260903185004 | 88 | 213 | 1.0 | 5.0 | 0.00 | 2.15 | 0.27 | 73 | 1015.9 |
| 20260903184504 | 88 | 185 | 0.0 | 3.0 | 0.00 | 2.16 | 0.27 | 75 | 1015.8 |
| 20260903184004 | 88 | 324 | 1.0 | 6.0 | 0.00 | 2.16 | 0.27 | 74 | 1015.7 |
| 20260903183504 | 87 | 305 | 2.0 | 6.0 | 0.00 | 2.17 | 0.27 | 73 | 1015.5 |
| 20260903183004 | 88 | 261 | 2.0 | 5.0 | 0.00 | 2.17 | 0.27 | 73 | 1015.5 |
| 20260903182525 | 88 | 209 | 2.0 | 7.0 | 0.00 | 2.18 | 0.27 | 75 | 1015.4 |
| 20260903182004 | 88 | 205 | 2.0 | 7.0 | 0.00 | 2.19 | 0.27 | 75 | 1015.5 |
| 20260903181525 | 87 | 249 | 1.0 | 4.0 | 0.00 | 2.19 | 0.27 | 75 | 1015.6 |
| 20260903181025 | 87 | 256 | 2.0 | 4.0 | 0.00 | 2.20 | 0.27 | 76 | 1015.9 |
| 20260903180504 | 87 | 230 | 1.0 | 4.0 | 0.00 | 2.20 | 0.27 | 75 | 1016.1 |
| 20260903180004 | 87 | 212 | 1.0 | 4.0 | 0.00 | 2.20 | 0.27 | 74 | 1016.4 |